View from above orbital plane
|
View from above satellite
|
Ground track
|
The orbit data is extracted from the following two-line orbital elements,
1 36665U 99025DYK 22221.32652314 .00002416 00000-0 12062-2 0 9992
2 36665 98.3835 245.9424 0148908 213.7765 145.3854 14.12102052427545
Epoch (UTC): | 09 August 2022 07:50:11 |
Eccentricity: | 0.0148908 |
inclination: | 98.3835° |
perigee height: | 744 km |
apogee height: | 960 km |
right ascension of ascending node: | 245.9424° |
argument of perigee: | 213.7765° |
revolutions per day: | 14.12102052 |
mean anomaly at epoch: | 145.3854° |
orbit number at epoch: | 42754 |
The dashed part of the orbit path shows where the satellite is in the earth's shadow,
|
|